Change the Weather History Date:

Friday, November 1, 2013

  Actual Average Record
Temperature  
Mean Temperature 80 °F -  
Max Temperature 85 °F 84 °F 88 °F (2012)
Min Temperature 75 °F 74 °F 73 °F (1999)
Cooling Degree Days 15    
Growing Degree Days 30 (Base 50)    
Moisture  
Dew Point 74 °F    
Average Humidity 79    
Maximum Humidity 89    
Minimum Humidity 65    
Precipitation  
Precipitation 1.50 in 0.17 in - ()
Sea Level Pressure  
Sea Level Pressure 29.88 in    
Wind  
Wind Speed 11 mph ()    
Max Wind Speed 21 mph    
Max Gust Speed 34 mph    
Visibility 5.7 miles    
Events Rain , Thunderstorm    
Averages and records for this station are not official NWS values.
T = Trace of Precipitation, MM = Missing Value Source: Averaged Metar Reports

Daily Weather History Graph

Daily Weather History Graph

Search for Another Location

Airport or City:

Trip Planner

Search our weather history database for the weather conditions in past years. The results will help you decide how hot, cold, wet, or windy it might be!

Date:

Astronomy

Nov. 01, 2013 Rise Set
Actual Time 6:11 AM AST 5:40 PM AST
Civil Twilight 5:49 AM AST 6:02 PM AST
Nautical Twilight 5:23 AM AST 6:28 PM AST
Astronomical Twilight 4:57 AM AST 6:53 PM AST
Moon 4:15 AM AST (11/1) 4:18 PM AST (11/1)
Length of Visible Light 12h 13m
Length of Day
11h 28m
Waning Crescent, 4% of the Moon is Illuminated
Nov 1
Waning Crescent
Nov 3
New
Nov 10
First Quarter
Nov 17
Full
Nov 25
Last Quarter

Hourly Weather History & Observations

Time (AST) Temp. Heat Index Dew Point Humidity Pressure Visibility Wind Dir Wind Speed Gust Speed Precip Events Conditions
12:00 AM 82.4 °F 89.5 °F 75.2 °F 79% 29.89 in 6.2 mi East 8.1 mph - N/A   Partly Cloudy
1:00 AM 82.4 °F 88.2 °F 73.4 °F 74% 29.89 in 6.2 mi East 6.9 mph - N/A   Partly Cloudy
2:00 AM 81 °F - 74 °F 73% 29.86 in 25 mi East 8.1 mph - -   Partly Cloudy
2:00 AM 80.6 °F 85.4 °F 73.4 °F 79% 29.86 in 6.2 mi East 6.9 mph - N/A   Partly Cloudy
3:00 AM 80.6 °F 85.4 °F 73.4 °F 79% 29.83 in 6.2 mi ENE 8.1 mph - N/A   Partly Cloudy
3:19 AM 80.6 °F 85.4 °F 73.4 °F 79% 29.86 in 1.6 mi East 10.4 mph 26.5 mph N/A Rain Rain Showers
4:00 AM 77.0 °F - 73.4 °F 89% 29.86 in 6.2 mi NNE 8.1 mph - N/A   Scattered Clouds
5:00 AM 77 °F - 72 °F 81% 29.89 in 4 mi NE 12.7 mph - - Rain Light Rain Showers
5:00 AM 77.0 °F - 71.6 °F 83% 29.86 in 3.7 mi NE 12.7 mph - N/A Rain Light Rain Showers
6:00 AM 78.8 °F - 73.4 °F 83% 29.86 in 6.2 mi NE 11.5 mph - N/A   Scattered Clouds
7:00 AM 80.6 °F 86.2 °F 75.2 °F 84% 29.89 in 6.2 mi ENE 6.9 mph - N/A   Scattered Clouds
8:00 AM 82 °F - 74 °F 72% 29.90 in 25 mi East 10.4 mph - -   Partly Cloudy
8:00 AM 82.4 °F 89.5 °F 75.2 °F 79% 29.89 in 6.2 mi East 11.5 mph - N/A   Partly Cloudy
9:00 AM 84.2 °F 90.9 °F 73.4 °F 70% 29.89 in 6.2 mi East 13.8 mph - N/A   Scattered Clouds
10:00 AM 84.2 °F 92.3 °F 75.2 °F 74% 29.92 in 6.2 mi East 13.8 mph - N/A   Scattered Clouds
11:00 AM 85 °F - 75 °F 65% 29.91 in 25 mi East 15.0 mph - -   Partly Cloudy
11:00 AM 84.2 °F 92.3 °F 75.2 °F 74% 29.89 in 6.2 mi East 16.1 mph - N/A   Scattered Clouds
12:00 PM 84.2 °F 92.3 °F 75.2 °F 74% 29.89 in 6.2 mi East 16.1 mph - N/A   Scattered Clouds
1:00 PM 84.2 °F 92.3 °F 75.2 °F 74% 29.86 in 6.2 mi East 12.7 mph - N/A   Scattered Clouds
2:00 PM 83 °F - 74 °F 67% 29.86 in 28 mi East 15.0 mph - -  
2:00 PM 84.2 °F 90.9 °F 73.4 °F 70% 29.86 in 6.2 mi East 15.0 mph - N/A   Scattered Clouds
3:00 PM 84.2 °F 92.3 °F 75.2 °F 74% 29.83 in 6.2 mi East 12.7 mph - N/A   Scattered Clouds
4:00 PM 77.0 °F - 73.4 °F 89% 29.86 in 3.7 mi ESE 16.1 mph 34.5 mph N/A Rain Rain Showers
5:00 PM 81 °F - 75 °F 77% 29.86 in 5 mi East 13.8 mph - - Rain Light Rain Showers
5:00 PM 80.6 °F 86.2 °F 75.2 °F 84% 29.86 in 5.0 mi East 13.8 mph - N/A Rain Rain Showers
6:00 PM 77.0 °F - 73.4 °F 89% 29.89 in 5.0 mi ESE 12.7 mph - N/A Rain Rain Showers
7:00 PM 78.8 °F - 75.2 °F 89% 29.86 in 5.0 mi East 15.0 mph - N/A Rain , Thunderstorm Thunderstorms and Rain
7:25 PM 78.8 °F - 75.2 °F 89% 29.89 in 5.0 mi ESE 16.1 mph 28.8 mph N/A Rain , Thunderstorm Thunderstorms and Rain
8:00 PM 80 °F - 75 °F 82% 29.91 in 5 mi ESE 17.3 mph - - Rain , Thunderstorm Thunderstorms and Rain
8:00 PM 80.6 °F 86.2 °F 75.2 °F 84% 29.89 in 5.0 mi ESE 17.3 mph - N/A Rain , Thunderstorm Thunderstorms and Rain
9:00 PM 80.6 °F 86.2 °F 75.2 °F 84% 29.92 in 6.2 mi ESE 16.1 mph - N/A Rain Light Rain Showers
10:00 PM 82.4 °F 90.9 °F 77.0 °F 84% 29.92 in 5.0 mi ESE 19.6 mph - N/A Rain Light Rain Showers
11:00 PM 82 °F - 75 °F 75% 29.94 in 12 mi SE 20.7 mph - - Rain Light Rain Showers
11:00 PM 82.4 °F 89.5 °F 75.2 °F 79% 29.92 in 6.2 mi SE 19.6 mph - N/A   Partly Cloudy